CAPE
459 559 660 490 635 398 356 376 211 34 0 118 300 609 458 1 0 0 0 0 0 0 0 0 0 0 0 0 0 13 199 277 383 417 355 305 236 215
514 604 458 361 416 456 462 383 317 235 84 289 309 266 101 0 0 0 0 0 0 0 0 0 0 0 0 0 0 0 0 0 0 0 13 170 445 360
360 226 219 422 364 582 329 503 269 286 107 128 374 331 245 106 0 0 0 0 0 0 0 0 0 0 0 0 0 0 0 0 0 0 0 0 0 114
556 502 422 336 350 418 337 172 349 241 155 84 120 138 100 72 0 0 0 0 0 0 0 0 0 0 0 0 0 0 0 0 0 0 0 0 0 0
717 720 537 265 221 392 260 171 172 309 159 74 44 16 68 47 0 0 0 0 0 0 0 0 0 0 0 0 0 0 0 0 0 1 2 1 0 0
514 710 469 385 372 179 403 315 300 360 292 269 155 94 62 106 53 0 0 0 0 0 0 0 0 0 0 0 0 0 0 0 0 0 1 1 2 4
488 605 486 473 511 465 432 151 86 75 87 104 77 31 25 52 38 21 0 0 0 0 0 0 0 0 0 0 0 0 0 0 0 0 0 0 0 0
300 259 242 292 199 241 184 107 64 79 86 69 31 12 23 51 20 42 16 48 28 0 0 0 0 0 0 0 0 0 0 0 0 0 0 0 0 0
86 108 139 10 2 26 25 10 3 1 18 40 42 28 62 24 11 15 4 42 19 1 0 0 0 0 0 0 0 0 0 0 0 0 0 0 0 0
0 0 0 0 0 0 0 8 0 0 0 0 0 0 0 0 0 2 6 22 0 0 0 0 0 0 0 0 0 0 0 0 0 0 0 0 0 0
0 0 0 0 0 0 0 0 0 0 0 0 0 0 0 0 0 0 0 0 13 0 0 0 0 0 0 0 0 0 0 0 0 0 0 0 0 0
0 0 0 0 0 0 0 0 0 1 0 0 0 0 0 0 0 0 0 0 0 0 0 0 0 0 0 0 0 0 0 0 0 0 0 0 0 0
1 1 1 1 0 0 0 0 0 0 0 0 0 0 0 0 0 0 0 0 0 0 0 0 0 0 1 0 0 0 0 0 0 0 0 0 0 0
0 1 1 1 1 0 0 0 0 0 0 0 0 0 0 0 0 0 0 0 0 0 0 0 0 0 0 0 0 0 0 0 0 0 0 0 0 0
0 0 0 0 0 0 0 0 0 0 0 0 0 0 0 0 0 0 0 0 0 0 0 0 0 0 0 0 0 0 0 0 0 0 0 0 0 0
0 0 0 0 0 0 0 0 0 0 0 0 0 0 0 0 0 0 0 0 0 0 0 0 0 0 0 0 0 0 0 0 0 0 0 0 0 0
0 0 0 0 0 0 0 0 0 0 0 0 0 0 0 0 0 0 0 0 0 0 0 0 0 0 0 0 0 0 0 0 0 0 0 0 0 0
0 0 0 0 0 0 0 0 0 0 0 0 0 0 0 0 0 0 0 0 0 0 0 0 0 0 0 0 0 0 0 0 0 0 0 0 0 0
0 0 0 0 0 0 0 0 0 0 0 0 0 0 0 0 0 0 0 0 0 0 0 0 0 0 0 0 0 0 0 0 0 0 0 0 0 0
0 0 0 0 0 0 0 0 0 0 0 0 0 0 0 0 0 0 0 0 0 0 0 0 0 0 0 0 0 0 0 0 0 0 0 0 0 0
0 0 0 0 0 0 0 0 0 0 0 0 0 0 0 0 0 0 0 0 0 0 0 0 0 0 0 0 0 0 0 0 0 0 0 0 0 0
0 0 0 0 0 0 0 0 0 0 0 0 0 0 0 0 0 0 0 0 0 0 0 0 0 0 0 0 0 0 0 0 0 0 0 0 0 0
0 0 0 0 0 0 0 0 0 0 0 0 0 0 0 0 0 0 0 0 0 0 0 0 0 0 0 0 0 0 0 0 0 0 0 0 0 0
CIN
-35 -32 -33 -40 -33 -42 -46 -42 -42 -28 0 -84 -51 -107 -110 -16 0 0 0 0 0 0 0 0 0 0 0 0 0 -111 -95 -70 -35 -15 -4 -4 -4 -2
-29 -29 -49 -42 -44 -36 -32 -42 -54 -50 -64 -55 -36 -64 -149 0 0 0 0 0 0 0 0 0 0 0 0 0 0 0 0 0 0 0 -61 -60 -5 -7
-51 -65 -71 -46 -40 -32 -40 -31 -54 -48 -25 -40 -36 -52 -73 -116 0 0 0 0 0 0 0 0 0 0 0 0 0 0 0 0 0 0 0 0 0 -67
-36 -38 -36 -42 -38 -31 -34 -62 -29 -55 -42 -24 -38 -37 -34 -93 0 0 0 0 0 0 0 0 0 0 0 0 0 0 0 0 0 0 0 0 0 0
-15 -15 -17 -35 -33 -25 -42 -60 -58 -33 -55 -54 -46 -29 -52 -105 0 0 0 0 0 0 0 0 0 0 0 0 0 0 0 0 0 0 0 0 0 0
-15 -11 -18 -17 -17 -29 -22 -25 -30 -32 -35 -31 -53 -48 -55 -64 -80 0 0 0 0 0 0 0 0 0 0 0 0 0 0 0 0 0 0 0 0 0
-17 -14 -17 -20 -23 -31 -27 -60 -44 -34 -36 -45 -52 -75 -74 -58 -48 -96 0 0 0 0 0 0 0 0 0 0 0 0 0 0 0 0 0 0 0 0
-22 -25 -29 -32 -51 -41 -58 -56 -66 -44 -28 -27 -38 -51 -53 -55 -94 -74 -83 -66 -88 0 0 0 0 0 0 0 0 0 0 0 0 0 0 0 0 0
-46 -41 -29 -81 -96 -77 -78 -106 -154 -73 -69 -75 -55 -67 -54 -62 -75 -82 -74 -54 -49 -9 0 0 0 0 0 0 0 0 0 0 0 0 0 0 0 0
0 0 0 0 0 0 0 -100 0 0 0 0 0 0 0 0 0 -40 -67 -64 0 0 0 0 0 0 0 0 0 0 0 0 0 0 0 0 0 0
0 0 0 0 0 0 0 0 0 0 0 0 0 0 0 0 0 0 0 0 -39 0 0 0 0 0 0 0 0 0 0 0 0 0 0 0 0 0
0 0 0 0 0 0 0 0 0 0 0 0 0 0 0 0 0 0 0 0 0 0 0 0 0 0 0 0 0 0 0 0 0 0 0 0 0 0
0 0 0 0 0 0 0 0 0 0 0 0 0 0 0 0 0 0 0 0 0 0 0 0 0 0 0 0 0 0 0 0 0 0 0 0 0 0
0 0 0 0 0 0 0 0 0 0 0 0 0 0 0 0 0 0 0 0 0 0 0 0 0 0 0 0 0 0 0 0 0 0 0 0 0 0
0 0 0 0 0 0 0 0 0 0 0 0 0 0 0 0 0 0 0 0 0 0 0 0 0 0 0 0 0 0 0 0 0 0 0 0 0 0
0 0 0 0 0 0 0 0 0 0 0 0 0 0 0 0 0 0 0 0 0 0 0 0 0 0 0 0 0 0 0 0 0 0 0 0 0 0
0 0 0 0 0 0 0 0 0 0 0 0 0 0 0 0 0 0 0 0 0 0 0 0 0 0 0 0 0 0 0 0 0 0 0 0 0 0
0 0 0 0 0 0 0 0 0 0 0 0 0 0 0 0 0 0 0 0 0 0 0 0 0 0 0 0 0 0 0 0 0 0 0 0 0 0
0 0 0 0 0 0 0 0 0 0 0 0 0 0 0 0 0 0 0 0 0 0 0 0 0 0 0 0 0 0 0 0 0 0 0 0 0 0
0 0 0 0 0 0 0 0 0 0 0 0 0 0 0 0 0 0 0 0 0 0 0 0 0 0 0 0 0 0 0 0 0 0 0 0 0 0
0 0 0 0 0 0 0 0 0 0 0 0 0 0 0 0 0 0 0 0 0 0 0 0 0 0 0 0 0 0 0 0 0 0 0 0 0 0
0 0 0 0 0 0 0 0 0 0 0 0 0 0 0 0 0 0 0 0 0 0 0 0 0 0 0 0 0 0 0 0 0 0 0 0 0 0
0 0 0 0 0 0 0 0 0 0 0 0 0 0 0 0 0 0 0 0 0 0 0 0 0 0 0 0 0 0 0 0 0 0 0 0 -2 0
Wind_Speed
17 17 20 19 13 10 13 15 11 8 9 11 11 12 12 14 15 18 19 20 20 21 22 21 21 21 21 19 15 14 14 14 12 11 12 13 14 14
7 7 17 7 8 9 12 11 13 12 11 11 10 11 12 15 14 16 18 18 19 20 21 21 21 21 21 20 17 14 14 13 13 13 11 9 8 9
6 6 6 7 13 6 10 11 10 10 9 10 12 12 13 11 12 15 15 16 18 19 20 20 20 20 20 19 18 17 16 16 15 15 14 13 11 9
7 9 6 12 8 10 9 11 12 13 12 10 11 12 12 9 10 11 12 15 15 18 18 19 19 18 18 19 18 17 17 16 17 17 16 16 15 14
7 8 10 13 12 12 12 12 13 11 11 12 13 11 15 11 9 10 10 12 12 14 17 18 18 18 18 18 18 18 18 18 17 17 16 16 16 16
8 10 13 15 18 19 18 16 15 15 14 13 15 15 16 14 10 9 9 10 10 12 14 15 17 17 18 18 18 18 18 18 18 17 17 17 17 16
11 12 16 17 18 19 19 22 21 17 16 15 17 17 18 15 12 12 11 12 14 11 13 12 15 16 17 17 18 18 18 17 17 17 17 17 17 17
13 14 17 19 21 20 20 19 21 22 19 17 18 18 19 18 17 14 13 14 18 9 10 10 13 14 15 17 17 16 17 16 16 16 16 16 17 17
16 15 17 20 23 21 20 21 20 19 17 17 16 17 18 19 19 19 17 19 19 18 12 12 13 15 15 15 15 16 16 15 15 15 16 16 16 17
17 20 18 22 23 21 20 18 18 20 19 17 16 17 19 20 18 19 20 19 19 20 20 18 17 18 16 16 16 15 15 14 14 14 15 15 15 16
20 20 19 19 20 19 18 17 16 18 17 16 15 17 19 21 21 18 22 22 22 21 24 20 19 19 19 17 15 15 15 14 14 15 15 14 14 15
16 18 19 20 19 20 18 14 14 15 13 16 17 19 19 20 20 20 20 22 22 23 24 23 23 21 23 21 18 16 18 17 20 19 16 14 13 14
16 17 18 19 19 19 18 17 16 13 11 12 14 17 18 18 20 21 22 22 22 22 23 22 22 23 24 21 18 18 16 20 19 18 16 16 15 15
15 16 17 17 17 18 18 18 18 16 15 16 16 17 19 22 22 22 21 21 20 19 19 20 20 21 22 23 24 20 19 19 19 20 17 17 17 17
14 15 15 16 17 19 19 19 17 17 17 17 18 19 20 19 19 20 20 20 20 19 18 19 20 20 20 23 25 23 24 20 19 20 19 18 19 20
15 15 16 17 18 19 19 19 19 18 17 18 19 19 19 19 22 23 24 25 24 22 21 22 23 24 27 28 28 29 25 22 19 21 21 22 23 20
15 16 16 17 18 19 19 20 19 19 20 20 20 20 20 22 24 24 24 25 25 25 23 21 23 24 26 28 28 25 20 22 17 15 16 20 19 13
17 17 18 18 18 18 18 19 20 20 20 20 20 21 23 24 25 25 25 25 25 25 24 24 26 26 26 24 25 23 21 19 17 19 22 23 22 21
17 18 17 17 17 18 18 19 19 20 20 20 21 22 23 24 26 26 26 25 25 26 25 25 26 27 28 28 25 24 23 22 20 21 22 23 23 23
17 17 17 17 17 18 18 19 19 19 19 21 22 22 23 24 27 27 26 25 25 26 27 26 26 26 27 27 26 24 22 22 22 23 24 24 24 25
18 17 14 15 16 17 18 18 18 18 19 20 22 22 23 25 27 27 25 25 25 26 27 26 24 23 24 24 26 25 23 21 20 22 23 25 26 24
18 17 17 13 13 14 15 17 17 18 18 19 19 21 22 24 25 26 26 25 25 26 26 24 23 24 24 25 26 25 24 23 22 21 20 21 22 24
20 19 18 17 13 12 13 15 17 18 19 17 18 20 21 24 23 24 24 25 26 26 25 26 23 23 24 24 24 25 24 24 23 24 25 22 19 19
Wind_Direction
208 225 264 329 25 58 32 37 80 139 139 108 100 111 87 65 50 31 16 11 11 9 10 5 355 356 3 16 56 69 59 63 89 121 132 146 156 160
98 116 209 100 59 46 24 37 35 66 61 88 89 86 48 31 33 23 17 18 16 14 15 13 8 5 4 8 16 30 35 35 35 36 49 81 121 139
82 111 127 144 199 64 32 29 26 36 52 42 34 38 29 31 23 14 25 22 16 14 13 15 14 9 8 11 12 10 7 6 9 11 14 18 26 32
137 34 44 4 33 25 24 16 5 1 6 11 17 17 19 31 25 27 28 17 20 2 7 7 9 12 14 11 9 8 5 3 360 358 359 360 2 5
50 31 13 352 353 358 358 356 353 0 359 357 356 5 358 15 15 13 12 18 20 3 1 3 5 7 10 12 10 8 5 1 360 0 358 356 354 352
24 10 358 348 336 332 335 338 341 340 343 344 342 346 349 356 5 5 2 359 13 15 0 359 0 359 1 6 6 6 6 5 4 2 357 354 354 352
347 348 345 343 338 333 331 324 327 331 334 334 332 334 334 341 341 341 337 341 343 345 347 352 353 350 354 359 359 359 3 6 5 3 0 1 1 356
333 335 337 333 331 331 330 331 326 321 324 326 326 327 328 330 332 333 337 336 331 340 336 337 340 343 347 346 351 354 357 1 0 2 1 1 358 355
324 331 329 331 323 325 333 330 329 328 328 326 324 323 324 323 322 321 317 319 321 323 326 324 325 325 334 341 347 349 353 358 358 357 354 354 352 349
322 318 329 322 319 319 328 335 332 328 330 333 331 330 329 326 325 323 321 323 326 323 314 315 313 313 320 326 332 336 344 350 353 355 352 352 352 349
319 322 325 327 324 324 325 329 332 332 339 342 343 338 337 336 330 326 319 320 317 320 319 320 316 312 312 316 322 324 330 336 339 340 338 342 347 347
330 331 331 330 329 329 330 335 335 333 335 334 334 332 337 339 341 341 334 327 323 319 326 318 320 314 309 315 315 317 320 323 324 326 329 331 336 338
336 337 336 334 337 341 343 343 343 354 357 353 346 338 339 340 339 336 334 329 325 323 327 327 324 322 319 320 321 312 317 321 321 322 326 322 323 324
350 348 347 352 353 351 351 350 349 348 349 347 347 341 338 340 342 342 344 343 341 337 336 337 333 328 323 319 317 322 315 310 310 313 318 322 323 320
5 6 8 6 5 2 1 2 5 2 356 353 348 345 345 350 354 354 353 351 349 350 347 345 341 335 328 319 318 316 313 306 305 309 313 317 322 325
4 5 4 1 357 359 358 0 2 3 0 354 349 349 350 354 350 349 344 340 338 336 336 337 335 331 325 317 314 309 308 307 304 306 310 311 310 316
2 1 359 359 357 357 358 358 360 0 357 356 355 353 349 347 346 348 348 346 342 336 332 342 343 342 339 331 322 324 318 316 322 323 323 320 316 315
358 355 353 353 355 357 357 356 356 357 358 358 356 351 346 344 343 345 345 343 340 341 341 339 337 337 336 339 345 334 332 328 327 326 326 325 321 321
355 355 358 1 3 1 359 357 356 358 360 2 359 356 354 351 347 345 345 346 345 345 342 341 340 339 335 330 334 345 332 329 326 326 329 329 325 327
356 354 357 2 5 4 1 359 0 360 358 358 355 354 352 351 348 346 346 346 345 343 341 342 341 340 336 333 332 332 338 330 327 324 324 325 323 322
358 354 356 356 357 1 2 2 360 357 358 357 357 358 356 352 349 349 348 347 346 344 342 342 343 344 342 339 331 330 332 331 329 326 326 325 324 323
355 353 357 0 2 6 8 4 1 356 353 353 357 358 358 356 354 354 352 349 348 347 346 345 345 344 343 341 339 338 336 336 333 329 328 328 326 324
356 357 354 359 6 7 7 1 0 358 354 353 352 354 354 352 353 354 353 352 349 346 347 348 347 347 344 342 340 338 338 338 339 335 330 330 327 322